Location: Chavannes
(47.1090°N, 0.2226°W)
Time: 04:36:08
(UTC+00:00)

H-2A R/B - Pass Details

Date: 16 October 2021
Orbit: 577 x 654 km, 98.5° (Epoch: 03 December)

Event Time Altitude Azimuth Distance (km) Brightness Sun altitude
Rises 19:49:33 0° 5° (N) 2,806 5.6 -27.5°
Reaches altitude 10° 19:51:52 10° 355° (N) 1,902 4.8 -27.8°
Maximum altitude 19:55:29 31° 293° (WNW) 1,040 3.7 -28.4°
Drops below altitude 10° 19:59:06 10° 232° (SW) 1,902 4.9 -29.0°
Sets 20:01:26 0° 222° (SW) 2,806 5.7 -29.4°
